CAPE
2443 2140 2100 1962 1771 1620 2086 2395 2214 1741 1751 2190 2218 2960 2840 2622 3120 2822 2814 2371 2348 1967 1216 654 747 1024 961 1562 1851 2213 2697 2414 2416 2408 2336 2508 2692 2787 2838 2754 2643 2544 2466 2327 2242 2144 2157 2052 1990 2048 1928 1906 1819 1816 1863 1835 1785 1861 1730 1571 1508 1683 2049 2016 2137 2085 2020 2155 2228 2213 2097 2055 2010 1976 1902 1867 1703 1727 1634 1560 1452 1299 1300 1316 1198
2278 2434 2154 1624 1722 1450 1713 1844 2169 1482 1412 2084 2197 2880 2916 2767 2517 2406 1998 1465 1493 1405 2875 886 489 599 948 1068 1176 1448 2246 2336 2206 2354 2587 2438 2490 2827 2864 2685 2649 2563 2386 2215 2211 2219 2154 2054 1959 1862 1847 1916 1768 1879 1909 1777 1873 1785 1875 1738 1802 1937 2002 2032 1984 2034 1856 2122 2139 2111 2153 1999 1918 1921 1860 1836 1829 1742 1562 1419 1510 1319 1215 1200 1174
2349 2367 1302 1252 1446 1628 1932 1949 1980 2516 2705 3469 2620 2978 2745 2875 2702 2954 2615 2375 1844 2001 2322 1550 1290 789 870 611 685 902 1102 1832 1892 1987 2074 2310 2225 2518 2748 2775 2667 2534 2476 2400 2357 2300 2227 2152 2006 1802 1896 1825 1660 1934 1890 1729 1925 1708 1907 1949 2038 2024 2061 2028 2041 1981 2080 2153 2102 2130 2137 1942 1890 1845 1744 1839 1800 1796 1771 1626 1458 1464 1454 1438 1436
2446 2270 1343 1213 1493 1805 2021 2068 1758 2207 1958 2510 2665 3380 3248 2979 3213 2982 1989 2090 1845 1930 2669 1420 1855 888 1141 699 723 786 1092 1087 1442 1594 1714 2302 2271 2243 2532 2496 2584 2456 2442 2542 2453 2425 2316 2359 2274 1997 1960 2014 1893 1733 1887 1896 1972 1992 1967 1973 1996 2021 1984 1986 2028 2046 2228 2138 2293 2244 2130 1986 1911 1813 1873 1902 1943 1947 1910 1827 1759 1750 1642 1614 1643
2911 2396 1801 1640 1456 2024 1959 1686 1324 1589 1939 2283 2658 3288 3001 3338 3235 2859 2291 1725 1869 1779 1939 1721 1965 1547 1695 1096 1221 1366 822 935 685 798 1514 2327 2408 2278 2297 2467 2400 2498 2614 2466 2571 2582 2399 2530 2366 2262 2224 2284 2109 1961 1950 2129 2032 1999 2038 1990 1859 1965 2041 2074 2076 2289 2275 2462 2421 2364 2258 2088 2090 2132 2100 2154 2129 2145 2105 1991 1838 1753 1752 1722 1712
2732 2565 1982 1755 2004 1820 1758 1710 1538 1568 2190 2526 3012 2926 2784 2794 2517 2574 2014 1871 1688 1788 2509 2321 1426 1532 2054 1401 1887 2584 1760 1108 944 1044 934 1259 2422 2592 2571 2357 2391 2444 2548 2592 2665 2765 2732 2653 2540 2567 2465 2426 2412 2315 2287 2405 2317 2198 2215 2154 2080 2039 2182 2328 2360 2374 2487 2627 2654 2660 2639 2628 2570 2483 2466 2388 2258 2204 2175 2171 2144 2044 1863 1786 1748
3306 3069 2026 2038 1861 2147 2332 2493 2516 2679 3429 3930 2814 2615 2883 3081 2802 3314 1979 2528 1741 2623 2187 1744 2050 1883 2112 1770 1795 1750 1488 1302 1230 1305 1565 1346 1970 2068 2592 2558 2366 2336 2259 2373 2739 2776 2799 2760 2673 2686 2606 2562 2518 2504 2596 2558 2640 2589 2423 2427 2377 2474 2500 2518 2547 2659 2698 2748 2842 2837 2870 2888 2832 2766 2771 2671 2589 2500 2465 2420 2407 2354 2238 2097 1993
3271 2942 2554 2112 1886 2428 2996 3190 3434 3343 3519 3790 3462 3492 3403 2937 2387 2156 2552 1861 2409 1869 2319 2004 2308 1647 1736 2161 2056 1667 2437 2114 1694 1184 1437 2067 1856 2088 2347 2634 2700 2751 2859 2227 2330 2524 2902 2898 2747 2618 2704 2575 2676 2708 2623 2684 2716 2747 2702 2630 2750 2790 2832 2769 2798 2848 2920 2934 2985 3065 3101 3124 3162 3076 3031 2973 2854 2781 2728 2696 2638 2588 2553 2438 2317
3407 3375 3490 2044 2285 2290 2660 2822 3473 3291 3676 3524 3100 3118 2912 2785 4125 3270 2765 4412 2350 1257 1675 2289 2062 2059 1849 1689 2006 2367 3162 2659 1171 1325 1850 2261 2142 1808 2411 2407 3075 2706 3048 2966 2719 2650 2856 3038 2722 2683 2623 2481 2742 2838 2718 2709 2726 2709 2905 3068 3060 2948 2902 3006 3100 3120 3133 3231 3246 3242 3316 3371 3350 3342 3293 3272 3222 3159 3077 2993 2940 2895 2852 2803 2729
3479 3611 4423 2250 2268 2024 2182 3087 3259 3437 3565 3278 3148 3106 3124 2811 3422 4352 3344 3268 2584 1944 1528 1683 1315 1155 1214 1329 2273 2147 2143 2332 2103 2819 2722 2350 2476 2228 2337 2569 2370 2366 2392 2299 2792 3076 2343 2950 3224 2970 2985 2943 3000 2822 2748 2917 2982 2927 2961 2932 2988 3157 3333 3306 3306 3355 3341 3473 3642 3651 3609 3590 3676 3664 3596 3590 3605 3598 3499 3418 3369 3297 3176 3092 2992
3708 3460 3867 2829 2712 2594 2713 3043 3223 3401 3364 3358 2970 2712 2905 2681 2479 3751 3926 3402 2855 2489 2222 2827 1892 702 711 1280 1690 2690 2221 1801 2846 2810 2017 1441 1346 1826 1837 2674 2436 2576 2332 1352 2893 3043 2634 2333 2793 3060 3044 3350 3206 3253 3353 3318 3010 3098 3176 3198 3392 3439 3448 3544 3561 3623 3754 3782 3887 4040 4115 4119 4067 4001 3990 3974 3993 3996 3928 3794 3690 3584 3499 3426 3294
3641 3516 4036 3019 2743 2699 2876 2674 3092 3256 2941 2397 2633 3124 3292 3118 2630 2024 3402 3172 3166 2160 2496 2306 2003 1561 1745 1467 1834 2016 2338 2157 2054 2163 1910 1397 1528 1692 1103 1468 1053 1260 1159 1375 1368 2825 2944 3188 3323 3234 3091 3126 3788 3741 3883 3562 3596 3606 3614 3709 3800 3777 3800 3808 3786 3893 4087 4182 4290 4418 4393 4294 4204 4165 4141 4144 4076 3962 3922 3859 3760 3734 3656 3505 3518
3658 3436 3278 2905 3128 3007 3020 2822 2792 2832 3179 3371 2872 2275 3175 3265 4305 4570 3037 3241 2808 2362 2064 2256 3328 2248 3247 1445 1761 1447 1749 2115 1647 1247 663 214 825 1483 984 1005 1248 1544 1479 1091 1326 1545 2352 2576 3803 3541 3616 3377 3137 4104 4260 4111 4175 4167 4082 4043 3909 3773 3918 3951 4228 4188 4296 4474 4469 4472 4413 4332 4299 4333 4353 4294 4197 4136 4104 4040 3932 3868 3746 3555 3506
3479 3272 3227 3094 3267 3217 3201 2884 2606 2995 3821 3400 3388 2895 3519 3239 2919 3724 3238 2420 3231 2024 1770 2491 2708 1743 2422 1638 1786 1666 2081 1730 1488 600 249 178 211 312 705 615 596 616 888 1622 1779 1603 1658 2288 3902 2886 3567 4076 3081 3179 3421 4202 4499 4564 4691 4556 4008 4029 4139 4250 4261 4337 4504 4654 4648 4596 4615 4474 4374 4298 4314 4286 4153 4097 4040 3947 3895 3862 3846 3746 3604
3220 3113 3034 2829 3116 3422 3228 3311 2894 3026 3328 3481 3150 3115 3030 3499 2698 3707 3117 3282 3086 2074 2688 2407 1417 1908 2220 3177 1304 1777 1426 1036 1080 232 77 81 228 334 611 733 650 789 1100 1612 2028 1350 1585 1670 1178 3323 3150 3312 4426 4028 4366 4314 4117 4610 4241 3965 4122 4507 4187 4225 4263 4177 4247 4338 4430 4360 4306 4281 4276 4190 4130 4066 3991 4000 4024 4005 3940 3844 3754 3638 3632
2325 2528 2660 2962 3050 3200 2997 3047 3310 3292 3268 3318 3299 3038 2762 3454 3073 3004 3504 3409 2216 1557 1427 2317 2751 2187 2860 2504 1375 1210 1350 914 806 566 204 152 27 221 343 597 650 1125 1492 1242 1283 1118 1814 1789 2639 2189 3113 4309 3660 3505 4434 4811 5326 6111 4912 4159 3875 3900 4275 3995 3828 3989 3916 3922 4092 4174 4168 4099 4049 4066 4010 4035 4051 3888 3854 3844 3781 3718 3626 3458 3411
2307 2332 2594 3156 3180 3099 3046 3230 3447 3414 3297 3429 3216 2967 3124 2802 3024 3679 3665 3306 1271 1060 1835 1622 2316 2968 4102 3163 1636 2355 2132 1016 603 831 870 402 0 179 1162 222 431 1463 1415 941 520 1250 1220 2427 3025 3596 2872 2789 3199 3298 4148 4617 5279 5686 5424 5282 4635 3839 3812 3972 3849 3602 3677 3771 3744 3853 3912 4005 4088 3987 3841 3794 3726 3767 3839 3773 3663 3474 3288 3264 3138
2459 2540 2577 2870 3206 3348 3226 3188 3408 3713 3683 3398 3207 3308 3119 2594 3185 2898 3248 3308 3190 1308 1542 1904 1937 2678 2299 2857 2903 2037 2346 1963 1209 1882 2712 1161 216 225 420 321 209 1048 934 752 1154 669 1847 1394 2508 4008 3076 3769 3989 3886 3542 3863 5069 5923 6910 5492 5115 5041 4545 4202 3594 3295 3431 3594 3642 3807 3941 3997 3880 3694 3646 3678 3754 3725 3593 3397 3264 3214 3114 2703 2392
1942 2201 2454 2985 3288 3447 3522 3354 3335 3538 3657 3673 3420 3086 2372 2373 2366 3718 3290 3348 3277 3842 1594 1137 2074 1818 1694 1272 1189 1860 1729 2255 2176 2668 2554 1883 1915 212 377 268 498 815 889 879 1078 909 1668 1834 2532 2236 3160 3108 3185 3936 3633 4221 3106 5054 4211 4017 3696 4157 3723 3351 3285 3256 3287 3534 3781 3903 3786 3666 3682 3662 3545 3563 3570 3463 3169 3068 2904 2582 2154 1981 1706
2442 3171 2643 2767 3179 3477 3672 3563 3197 2891 3697 3893 3495 2960 2745 3056 2556 3482 4081 4534 3613 3303 2836 1146 1957 3470 2532 2184 1979 1724 1975 1932 2167 2538 3303 2501 1748 605 358 423 566 560 915 839 820 673 1092 1321 1220 2125 3332 2490 3691 3446 4454 4530 5285 4539 4322 3319 2948 2464 3092 3068 3155 3170 3421 3795 3821 3569 3601 3647 3691 3603 3472 3479 3310 3067 2776 2574 2193 1828 1495 1561 1254
2952 3141 2911 3071 3410 3604 3753 3912 3502 3326 3492 3272 3060 2848 2711 3079 3002 3401 3457 3503 3367 3497 3854 2529 1958 1554 2284 2993 2981 3588 2768 1974 1948 3016 2735 2445 1451 1039 1248 849 439 666 1264 547 267 823 870 877 1077 1846 2375 3066 2455 3096 3164 3663 5211 4006 2942 2776 3187 2975 3071 2862 2784 3276 3634 3350 3397 3434 3612 3648 3570 3478 3470 3204 2906 2455 2124 1924 1597 1407 1312 871 653
3233 3400 3466 3116 3313 3458 3187 3181 3588 3948 2995 2718 2531 3102 3029 3133 3169 3127 3339 2837 4073 2392 1858 2965 2679 2581 2667 3376 3666 3345 3232 2434 1956 1816 1342 1914 1996 896 633 1607 1555 840 1524 494 686 824 986 1196 1239 1536 2625 3216 3966 3643 3475 2629 5162 3638 2893 2730 2875 2801 2864 2760 2885 3440 3028 3104 3252 3388 3618 3514 3376 3307 3137 2627 2340 2059 1626 1325 1100 843 675 572 420
2780 3290 3814 2874 3253 3292 2624 2848 2834 3678 3590 3455 2813 2759 2713 2955 3104 3155 3201 3179 2387 3335 2270 2457 2679 2052 2136 3408 3710 2663 2597 3374 2769 2392 2509 1750 2510 1946 562 502 219 1110 908 1004 1757 1212 963 1524 1210 1839 3541 2614 2968 4141 3774 3151 3290 2972 3142 2509 3109 3059 2852 3121 2903 3112 3139 3209 2888 3104 3424 3173 3051 3001 2555 2133 1887 1614 1143 848 634 515 421 398 333
3052 3041 3129 2632 3484 3477 2952 2913 4419 3831 3451 4992 4507 3406 2587 2680 3290 3614 3438 3084 2982 4211 3549 2417 1792 2438 2111 1829 2256 2292 2943 2323 1575 2081 1760 3318 2271 2659 2659 1000 782 605 844 735 902 1562 1295 1115 1640 2337 3101 3358 2592 3524 5236 4626 3863 3154 2864 3410 3203 3565 3132 3850 3331 3102 3236 2872 2451 2516 2921 2654 2508 2607 2150 1550 1413 1016 627 507 364 298 245 407 272
2895 2937 2410 2970 3437 3748 3480 3792 3678 4142 3274 4174 3966 3337 3784 2494 3535 3321 3421 3390 3200 3061 2862 2423 1755 2318 1776 850 1308 1055 1869 1383 2430 1245 1344 3518 2901 2704 2059 1719 1865 595 725 384 398 554 1175 1208 1894 2469 2263 4863 3468 4014 3418 4194 3691 2584 3617 3663 3698 3635 3592 3223 3244 3216 2899 2704 2362 2649 2870 2594 2220 2211 1943 1411 1084 640 664 563 466 477 445 388 426
2548 2919 2176 2364 3145 3634 4051 3968 4096 4233 4120 4513 4001 4394 4508 3851 3458 3331 2878 3494 3521 3261 3266 2441 2738 2014 1798 2089 1675 1075 1291 1346 997 881 1518 1835 2273 1844 4187 2782 1451 1604 1449 1740 811 1293 1043 1435 1877 3558 2970 2344 4019 3813 3098 2668 2671 2131 2805 4339 3984 3991 3832 3196 3297 3018 2776 2546 2348 2345 2391 2297 1986 1953 1763 1431 940 640 638 640 608 520 444 455 429
2718 3178 3539 3228 3020 3153 3537 3701 3924 4472 4588 4655 4608 4369 4584 4461 4325 3493 2760 3580 3497 3254 3110 2590 1597 1677 2136 2857 1646 1146 1758 1576 724 635 703 1657 1409 3400 2380 2988 3172 2856 998 1768 925 548 1447 1211 2696 3546 3688 3383 5544 5244 4144 3582 2951 2186 2632 4215 4104 4206 3970 3114 3069 2957 2704 2477 2354 2268 2052 2038 1954 1413 1330 919 637 664 658 707 553 590 516 439 430
3191 3128 3230 2948 2892 3086 3699 3372 4287 4212 4340 4198 4218 4031 4576 4169 4485 4219 3666 2104 2950 3222 3558 2643 1900 1896 1609 2294 3344 1410 2444 1092 1755 1970 2699 2952 3129 2246 3167 2417 3445 3480 2105 873 748 563 948 1284 2942 3499 4395 4942 3767 4979 4826 3828 3189 2695 1970 3258 5096 4503 3753 3059 3071 2765 2918 2756 2361 2336 2184 1986 1600 1297 1140 769 641 602 711 691 678 614 558 511 454
2842 2834 2690 3300 3255 3180 2753 2764 4681 4288 4185 4257 4000 4096 4516 3878 4016 4386 3564 2356 3063 3262 2832 3147 2536 1244 1544 1575 2488 1900 2399 3428 2194 2164 4070 3493 3836 4628 3980 4408 4421 3808 3444 4033 3727 2010 475 212 2827 4988 4114 4876 5514 4211 4741 4254 3449 3263 2852 3532 4799 4152 3840 3155 2732 2935 3229 3046 2596 2274 2175 2110 1827 1394 984 780 654 681 672 720 724 697 663 533 398
1963 1724 2723 3044 3583 3246 3427 3235 3699 3683 3801 3723 3858 4026 4764 3977 4014 4424 3825 3686 3590 3609 3274 2498 2047 2353 1798 1847 1989 2021 2119 2232 2442 2295 5842 3207 3121 3134 2783 3480 2979 3419 3983 3350 3952 3303 2877 1449 1974 2767 4242 4412 3795 3994 3700 4380 3305 2920 3045 2462 3420 4569 4010 3030 2752 3077 3464 3230 2787 2236 2146 2170 2002 1628 1212 916 770 645 687 744 743 782 691 632 537
2793 3106 2846 2740 3196 3392 3619 3144 3506 3633 4006 3859 4198 4006 4693 4478 3797 4033 3979 3864 4016 3770 3751 3177 2373 2186 2508 2319 2867 2252 2571 1500 1802 1542 1994 3416 3210 3604 3311 4722 3056 4747 4210 4868 3707 5280 2751 2407 1987 2361 3655 4448 2124 1495 2980 3704 3116 3065 3446 3005 3502 4894 3438 2884 2748 3125 3624 3408 2984 2461 2142 2220 2175 1856 1469 1148 933 755 694 703 762 790 735 699 617
1603 2786 2384 2253 2491 2606 2442 2429 2191 2591 3187 3255 3446 4065 4518 4478 3450 3117 3451 4004 4211 4058 3131 2918 2190 2550 2721 2345 2864 3023 2950 2958 2758 2706 3704 3403 3359 2866 2787 3435 3470 3300 4419 4106 3806 3753 3742 3039 2842 2043 1549 2771 2023 2051 3196 3137 3652 3018 3646 3306 3456 4446 3372 3316 2947 3098 3695 3562 3120 2702 2084 2183 2270 2094 1891 1612 1241 928 720 690 708 764 794 719 623
1452 1684 2143 2162 2515 2726 2477 2596 2182 2576 3114 3022 3018 3854 4386 4863 4469 3843 3787 4065 3969 4057 4232 3770 2560 2632 3104 2705 2742 2964 3033 2735 2974 2423 2298 2966 2974 3085 3412 3987 3663 3778 3394 3687 3460 3756 3926 4165 3743 2596 2800 2487 2766 2336 2500 3114 4351 4310 3832 4221 3899 4515 3814 4260 3137 3450 3731 3659 3216 2685 2013 2044 2136 2152 2060 1943 1722 1330 909 719 690 758 805 786 660
1462 1400 2008 1861 2191 2426 2274 2443 2288 2529 3115 3386 2634 3124 3956 4120 3835 2846 3437 4326 4166 4016 3950 3918 3882 3468 3365 3460 3101 2914 3020 2783 2562 2094 1977 1509 2482 2123 2436 2434 2804 3316 3706 3829 4078 3784 3964 3911 4074 4584 3341 2508 2540 3896 4101 3438 3176 3518 3425 3618 3416 3130 4126 4265 4244 3912 3808 3628 3230 2640 1958 1853 1894 1973 1941 1948 1814 1688 1294 923 738 752 868 836 649
1334 1328 1928 1756 2305 2512 2287 2527 2741 2638 3543 2940 2684 2787 3167 3860 3743 3082 2535 3498 3897 3778 3856 3895 3588 3615 3566 3384 2984 2938 2540 2517 2505 2308 2111 2210 1785 1924 1995 2102 2315 2049 3576 3454 3432 3533 3512 3785 4061 3318 3456 5682 3634 3627 3698 3343 3454 3904 3962 3694 3610 2352 2386 3520 4826 3808 3828 3611 3343 2608 2023 2129 2076 2130 2167 1963 1822 1638 1582 1255 910 824 899 894 791
969 1301 1710 1721 2444 2698 2577 2959 3164 2410 3329 2887 2690 2734 3383 3531 3524 3683 3770 3423 3482 3815 3810 3598 3384 3578 3462 3530 3110 2822 2813 2964 2871 2468 2271 2402 2281 2495 3664 2626 2116 1943 2752 3547 3796 4087 3986 3863 4172 4077 3976 3914 4374 4428 3974 3714 3828 3622 3905 3143 3090 2710 3455 2676 2299 4023 3591 3425 3220 2483 2231 2325 2271 2302 2327 2136 1898 1779 1686 1508 1106 906 984 992 823
653 1001 1512 2053 2291 2632 2036 2554 2834 2669 2584 2779 3090 2558 2631 2738 3231 3241 3224 3562 3588 3566 3364 3455 3465 3490 3414 3270 3287 3277 3286 3001 3341 2833 2570 2404 2590 2561 2305 2557 4099 3586 2672 3713 4687 4580 4716 4625 4581 4591 4759 4826 4541 4592 4674 3962 4081 4318 4075 4127 3770 3101 3437 3202 2995 3927 3186 3026 2807 2446 2429 2444 2359 2360 2424 2244 2158 2082 1878 1684 1478 1002 1050 1093 1003
570 840 1292 1406 1860 2464 2048 2053 2368 2738 2654 2716 3149 3178 2635 2571 2862 2952 3303 3480 3140 3364 3267 3142 3244 3123 3017 3136 3113 3303 3122 3026 2872 2751 2853 3004 3124 2594 2489 2832 2683 2718 3389 3615 3705 4286 4640 4563 4497 4637 5100 4865 4489 4496 4861 5364 4379 3611 4376 4174 3656 3609 4754 4726 3760 3082 3025 2676 2578 2379 2472 2465 2349 2418 2484 2332 2151 2115 2078 1998 1946 1406 1020 1249 1061
439 213 727 1239 1397 1956 2220 2115 2048 2570 2836 2591 2990 3351 3140 2863 2757 2777 2539 2895 2993 2995 2999 2829 2449 2738 2753 2705 3043 3118 3064 3120 2999 2970 3625 3697 3486 3161 3042 3673 3594 3502 3399 3141 3803 4090 4051 4208 4420 4508 4398 4454 4518 4752 5033 4571 4496 4110 4251 4947 4877 4650 4173 3915 4532 3849 2750 2571 2609 2610 2560 2539 2438 2373 2466 2391 2200 2106 2262 2280 2218 1760 963 1202 1125
561 176 71 709 1228 1239 1932 1810 2139 2281 2954 2788 3176 3634 3278 2879 2573 2854 2830 2593 2361 2396 2244 2435 2289 2136 2438 2451 1974 2555 2744 3047 3028 3097 3194 3690 3468 3268 3654 3341 3432 3652 3551 3358 3612 3729 3940 3863 4161 4224 4412 4591 4883 4198 5282 4689 3727 3789 3846 3592 3946 4500 5112 5847 3990 3635 3510 3743 3615 2986 2593 2304 2350 2218 2205 2225 2122 2104 2293 2339 2224 1886 889 1000 1117
617 444 122 27 838 1028 1109 1702 1975 2037 2296 2732 2690 3264 3490 3394 3102 2378 2482 2461 2240 2015 1929 1601 1643 1836 1640 1448 1935 1708 2662 3225 2797 2818 2730 2918 3344 3394 3594 4091 4125 3801 3767 3722 4237 4748 4441 4252 4052 4125 4349 4631 4554 3969 3666 3172 2986 3411 4871 4086 4163 4617 4152 3272 3918 5075 5058 3707 3288 2838 2741 2400 2380 2200 2063 2009 2015 2190 2302 2231 2133 1944 1127 913 1015
915 888 576 326 201 1038 1174 1581 1866 1856 1806 1842 2340 2233 2622 3211 3282 2363 2122 2188 1937 1748 2050 1884 1620 1447 1169 1121 1021 2047 2240 3040 2765 2412 2154 2296 2601 3456 4719 4305 4437 4500 4332 4289 4174 4080 4471 4548 4192 4297 4278 3796 3289 3484 3377 3543 4113 4251 3899 4251 3893 3891 3209 3519 4532 3655 3417 3732 3188 3408 4282 3591 2744 3025 2763 2585 2474 2525 2532 2405 2352 2041 1627 1370 1027
964 1993 1231 900 448 210 1104 1160 1493 1321 1468 1119 1402 1872 2001 2418 2909 3054 2674 2596 2325 2271 2111 2255 2012 1469 1119 1174 1068 1598 2955 2335 2609 2114 1955 1845 1926 2082 1939 2180 3424 5406 4484 4330 4168 4199 4430 4424 4327 4142 3684 3372 3224 2906 3090 2486 2216 2361 2902 5410 4442 4265 3818 3152 2886 4238 4280 2880 3239 3354 3852 4889 4169 4292 3898 3280 3031 2874 2767 2738 2444 2033 1780 1665 1171
2457 1659 1597 1407 1179 697 319 720 1087 1180 1314 908 165 1343 1704 1934 2321 2973 2763 2336 1826 2069 1930 1638 1678 1417 1274 980 812 538 886 1981 2883 2630 1904 1798 1828 1847 1891 1963 1961 2340 3111 4153 4866 4638 4384 4221 4080 3697 3221 3092 3494 3687 3211 2462 3162 3491 4808 3371 4148 3518 3718 4007 3894 3410 5953 4122 3276 3642 3956 4815 4813 4517 4148 3825 3326 2999 2846 2687 2376 2028 1761 1681 1271
1158 2052 2277 2367 1956 1615 1072 1181 810 1214 1470 1100 899 54 1208 1584 1854 2205 2477 2367 1768 1177 1245 1693 1643 1739 1741 1416 1144 842 314 1151 2600 3000 2923 2278 1699 1749 1733 1810 1838 1860 1878 2271 3030 3463 4354 5781 5450 4061 3402 3314 3274 3347 3220 3104 4144 3316 3663 3756 3380 3405 3309 2979 3230 3070 3492 5135 5369 5432 4607 4200 4263 3942 3481 3202 3161 2889 2509 2296 2181 1932 1706 1580 1329
1368 1179 1976 2157 2294 2895 2240 1839 2072 1872 1592 1372 1137 989 796 1140 1444 1735 2445 2018 1822 1338 993 1019 983 1505 1682 1580 1733 1458 1044 711 1541 3011 3618 3350 2812 2100 1969 1766 2454 2445 2063 1825 1814 2030 2857 3349 3636 4175 4795 4744 4435 4639 5016 4699 4061 3738 3920 4128 4426 4045 3606 3547 3788 4155 4708 4560 3958 3994 3654 3312 3466 3574 3575 3483 2756 2337 2292 2184 1899 1596 1516 1441 1272
1578 1846 2373 1715 1829 2162 2519 2039 1894 1543 1456 978 1102 1140 1020 894 1067 1355 2154 1697 1048 819 863 856 1129 1046 1655 1695 1435 1397 1536 1543 1058 1281 3196 4580 4323 4166 3436 2898 2790 2874 2724 2594 2334 1898 1473 1276 2634 3016 3168 3845 3986 4174 4438 4808 4788 4927 4651 4219 4203 4193 4532 4696 4420 4542 4401 4362 4282 4182 3576 3404 3829 3829 3730 3698 2341 1771 1431 1361 1306 1308 1295 1255 1315
1960 1963 2265 2306 2215 2076 2388 2236 2031 1673 1784 1492 1040 927 956 1084 976 950 1570 1952 1491 1006 638 572 817 1535 1611 1480 1622 1750 1704 1758 1794 1149 1506 3668 4923 4826 4703 4335 3784 3426 3139 2904 2569 2152 1817 1287 1096 1280 1871 2530 2582 2321 2325 2694 3620 4781 4660 4609 4739 4534 4267 4178 4212 4180 3945 3769 3735 3565 3474 3273 3612 3548 3424 3300 2425 2112 1665 1435 1399 1331 1301 1328 1337
1886 1871 2292 2573 2562 2282 2082 2050 1724 2767 2154 1637 1195 1068 860 1017 1014 1076 1625 2030 2082 1700 1157 1038 1012 1051 1010 1128 1755 1535 1538 2109 2262 1661 1120 761 2425 3870 4734 5002 5055 4764 4384 3731 3210 2691 2244 1720 1152 895 938 1190 1350 1235 1116 1350 1861 2737 4260 4815 4673 4308 4268 4294 4113 3830 3426 3199 2939 3849 3932 3512 3909 4144 3933 3394 2952 2223 1951 1807 1655 1495 1431 1400 1316
2269 2163 2204 2164 2524 2317 1872 1873 1894 2264 2098 1855 1505 1213 1169 1170 1142 1151 1588 2065 2226 2129 1946 1743 1365 1115 1039 1180 1581 1428 1475 1565 1507 1651 1788 1421 1350 1951 2647 3272 3818 4170 4560 4517 3870 3077 2639 2379 2136 1762 1456 1360 1225 1047 893 900 923 1175 2105 2417 2932 3018 2748 2662 2456 2236 1975 1726 1891 2148 2923 4203 4077 4065 3438 3332 2980 2456 1956 1833 1761 1664 1527 1381 1109
1986 2159 2270 2233 2236 2518 2425 1951 1868 2206 2109 2014 1694 1482 1256 1285 1334 1265 1890 2212 2330 2377 2264 2209 2062 1870 1860 1918 1990 1938 1732 1707 1430 1229 1278 1471 1642 1922 2171 2364 2459 2564 2687 3016 3464 3172 2539 2223 2153 2084 2027 1932 1784 1581 1345 1187 1037 1031 1474 2044 2249 2215 2028 1694 1329 1429 1511 1670 1498 1907 1905 2972 3981 3850 3310 3078 2635 2919 1939 1814 1626 1381 1123 1010 965
Wind_Speed
14 12 10 10 13 13 13 12 11 11 13 14 15 13 10 7 9 10 10 11 11 14 12 12 13 12 12 11 7 9 10 10 13 13 14 13 14 13 12 12 13 13 14 15 16 17 16 15 14 14 13 13 14 14 13 14 14 15 15 15 14 13 14 15 15 16 15 15 16 17 17 18 18 19 19 20 20 22 22 23 23 24 24 24 24
14 14 11 10 13 16 15 14 12 13 15 16 15 14 11 11 14 12 11 14 13 17 20 18 14 13 14 13 13 9 10 13 14 15 13 14 14 13 13 14 15 16 16 17 18 18 17 15 14 14 15 15 14 15 15 16 16 16 15 14 15 15 15 16 17 17 17 17 18 18 18 20 20 21 22 23 23 23 24 25 25 25 25 25 25
13 13 15 15 15 16 17 12 13 15 17 16 16 16 13 15 17 15 14 16 17 22 21 23 18 19 17 15 15 15 13 14 16 15 14 14 14 15 16 17 18 18 19 20 20 19 17 16 16 16 15 16 15 16 17 17 17 16 15 16 16 17 16 18 18 18 18 18 19 20 21 22 23 24 25 25 25 25 26 27 26 27 27 27 27
11 10 11 12 14 19 16 14 13 15 16 18 17 17 16 17 16 17 17 16 18 27 23 22 25 19 22 17 16 16 16 17 17 16 14 13 15 17 17 19 20 21 21 22 21 20 18 17 17 17 15 17 18 17 18 18 16 16 17 18 18 18 19 18 19 19 19 19 21 23 24 25 25 26 26 27 26 27 27 27 28 28 28 28 28
12 15 12 10 7 16 14 17 16 17 19 18 18 19 18 18 17 15 18 21 26 25 22 23 20 22 26 20 19 17 18 17 17 16 14 14 16 16 18 20 21 23 24 23 22 20 20 19 18 18 18 18 19 19 18 18 18 18 19 19 18 19 19 20 19 20 21 22 25 26 27 27 27 27 27 28 28 28 29 29 29 29 30 29 29
13 13 12 9 9 12 10 15 16 17 19 17 17 21 16 17 20 13 21 27 24 23 22 24 19 20 24 18 21 22 21 22 19 17 18 18 16 18 19 20 21 22 22 23 22 21 21 20 20 19 20 20 20 20 19 19 20 20 20 20 20 21 21 21 22 23 25 27 28 29 29 29 29 29 29 29 30 30 31 31 31 31 31 30 30
13 14 12 11 11 10 12 14 14 14 16 17 16 19 16 17 17 19 18 26 21 18 22 21 19 17 23 20 21 22 22 23 21 21 21 19 21 19 20 21 20 20 20 19 22 23 22 21 21 21 21 20 20 20 20 21 21 21 22 22 23 23 24 24 25 26 27 29 30 30 30 30 30 31 31 31 31 32 32 32 32 32 32 31 31
11 13 13 12 10 10 11 11 12 14 14 15 16 14 15 14 18 19 16 20 18 16 18 19 19 19 21 20 19 22 24 23 25 22 21 23 23 23 21 20 19 19 18 18 17 19 22 22 22 22 21 21 21 20 21 22 22 23 23 24 24 25 26 27 28 29 30 30 31 31 32 32 32 33 33 32 32 32 33 33 33 33 33 32 31
10 12 14 12 10 10 11 11 12 13 13 12 15 15 14 14 17 18 16 18 17 15 16 18 20 17 21 17 20 20 21 23 23 23 22 22 22 22 21 20 19 17 17 16 15 15 19 22 22 22 22 21 21 22 23 23 23 24 25 26 26 28 29 30 31 32 32 32 33 33 33 33 33 33 33 33 33 33 33 33 34 34 33 33 32
10 11 14 12 12 10 10 10 11 13 12 12 13 14 15 15 15 14 14 16 17 16 16 17 18 17 17 16 19 20 20 20 21 21 22 21 24 19 19 19 18 16 17 16 11 12 14 18 21 21 21 21 22 23 24 24 25 26 26 27 29 30 31 31 32 33 33 34 34 34 34 34 34 33 33 34 34 34 34 34 33 33 33 33 32
10 11 15 11 11 10 10 10 10 12 13 12 11 12 14 14 14 11 15 16 16 17 15 17 19 16 15 14 19 19 19 19 21 21 21 21 20 18 16 18 17 15 18 15 8 10 12 13 14 15 17 22 22 22 23 23 25 26 27 29 30 31 32 32 32 33 33 33 33 33 33 33 33 33 33 33 33 33 33 33 33 33 33 32 32
11 11 12 12 11 11 9 10 10 11 13 13 12 11 13 14 13 12 12 15 15 14 17 16 17 14 18 17 18 19 19 21 21 21 20 20 18 19 14 15 14 14 13 14 8 10 13 13 14 14 14 16 20 22 23 23 25 26 28 30 31 31 32 32 32 32 32 32 32 31 30 31 31 32 32 32 32 32 32 32 32 32 32 31 31
10 11 12 11 11 11 10 9 10 10 12 11 13 10 11 10 12 12 14 14 14 18 14 16 16 16 20 16 19 20 19 22 22 21 17 18 17 15 13 13 12 12 10 9 11 8 11 14 13 13 13 10 14 20 22 22 23 25 27 28 30 30 30 31 31 31 30 30 30 28 28 28 29 29 29 30 30 30 30 29 29 30 30 30 29
10 11 11 11 10 10 10 11 9 9 9 11 10 9 10 12 10 11 14 12 15 16 12 16 17 15 17 18 18 21 19 21 22 21 13 15 14 12 12 8 8 8 9 11 13 10 11 12 10 6 9 9 12 13 16 18 21 24 25 27 28 29 29 29 29 29 29 28 28 26 26 26 26 26 26 26 26 26 27 27 27 27 28 28 28
10 10 10 10 9 9 10 10 9 8 9 10 9 8 10 10 12 12 11 13 15 16 13 17 14 14 16 18 18 17 20 21 23 12 nan nan 13 12 10 7 6 8 8 11 13 8 7 7 7 7 8 10 10 13 14 15 18 21 23 25 25 26 27 27 27 26 26 25 24 23 23 22 23 23 23 23 23 23 23 24 23 23 23 24 24
8 9 9 9 9 9 10 8 9 8 9 9 8 9 9 9 8 12 10 13 14 12 14 13 14 12 15 17 16 14 17 18 15 15 11 10 nan 8 6 5 7 9 9 9 8 7 6 6 7 6 10 11 12 13 13 13 17 18 19 21 22 22 23 24 24 23 22 22 20 19 18 19 19 20 20 20 20 19 19 19 19 19 19 19 19
8 8 8 8 8 9 8 8 8 9 9 8 8 8 8 8 8 7 10 14 11 12 11 11 11 14 12 15 14 14 16 15 13 15 16 12 nan 10 4 3 6 10 11 7 7 8 6 5 6 8 9 10 13 13 15 9 9 12 14 15 15 17 19 20 21 20 19 18 16 15 15 16 17 18 18 17 16 15 15 14 14 14 14 14 15
8 9 6 7 7 8 7 7 7 9 9 8 9 8 7 7 5 9 9 12 12 11 9 13 9 11 11 10 9 10 13 17 12 13 13 14 7 4 7 2 4 9 8 7 9 7 4 4 8 9 11 12 12 13 12 9 8 9 7 9 12 14 15 16 17 17 16 15 14 13 13 13 14 15 14 14 12 11 10 11 11 11 11 12 13
8 8 6 6 8 7 7 7 7 8 9 8 7 8 7 7 4 6 8 8 11 10 8 8 8 10 12 9 8 9 11 12 11 11 11 13 12 7 4 2 4 8 9 9 7 7 7 7 6 9 12 11 11 12 13 8 5 3 1 4 8 10 11 13 14 14 13 12 11 11 10 12 12 12 12 11 10 10 10 10 11 11 12 13 14
6 7 6 7 8 8 7 9 7 7 7 8 8 8 5 6 5 5 4 8 8 10 10 8 6 8 8 9 5 8 10 10 9 8 7 8 11 8 5 4 8 8 9 8 3 4 6 12 7 5 8 10 11 13 10 8 5 5 4 4 4 7 8 9 11 11 9 8 7 7 9 10 10 10 11 11 11 11 11 12 12 13 13 14 14
5 6 6 6 8 8 9 8 9 7 6 8 8 6 5 5 4 2 3 5 8 6 8 8 9 3 6 7 9 5 6 6 6 7 5 7 7 8 9 10 11 15 8 4 2 3 6 9 9 5 7 8 8 10 7 8 5 4 4 4 3 5 5 6 7 7 5 4 4 6 7 7 8 9 10 11 12 13 14 14 13 13 13 13 13
4 5 6 6 7 7 9 9 9 7 9 8 6 4 5 4 4 3 3 4 5 3 5 5 8 7 3 3 6 8 7 7 5 6 5 5 8 6 7 10 11 11 13 9 5 5 3 7 8 9 8 8 9 7 6 6 5 3 3 4 3 3 4 5 4 2 1 1 3 4 4 5 7 9 10 11 13 14 15 14 14 13 12 12 12
4 4 6 7 7 8 8 8 7 6 9 8 7 4 5 4 4 4 2 3 3 4 5 4 4 5 3 2 4 4 4 4 5 6 5 6 7 10 7 8 6 10 14 13 13 8 7 7 7 9 10 9 10 8 5 3 4 2 4 5 3 4 4 4 3 2 3 2 1 2 2 4 6 9 12 13 14 14 14 13 13 13 11 11 11
4 4 5 8 5 8 8 5 4 6 6 6 5 6 6 4 3 2 2 3 3 4 4 2 2 1 4 1 4 5 2 6 4 1 4 5 7 10 12 11 9 9 8 10 13 7 7 5 6 7 9 7 7 8 7 4 2 3 4 4 5 5 5 3 3 4 4 3 2 3 4 6 8 9 12 14 15 14 14 13 12 12 11 11 10
2 2 6 6 5 6 6 5 3 6 4 6 4 5 5 3 3 3 3 2 3 3 3 4 3 2 3 3 2 3 1 4 5 4 1 4 4 9 12 11 7 6 7 7 10 6 5 4 8 8 8 7 5 6 8 3 2 3 1 4 7 5 4 4 5 6 6 5 5 6 7 9 10 11 14 16 17 16 14 13 12 11 11 11 10
1 1 4 5 5 6 3 6 5 4 3 4 3 2 2 4 2 3 5 2 2 2 3 4 5 4 5 6 7 5 4 2 1 5 2 2 4 7 9 10 12 9 7 5 9 8 5 4 5 7 8 9 6 5 6 2 1 4 4 5 7 7 7 6 8 9 8 8 9 9 10 11 12 13 15 16 17 17 15 14 12 12 12 11 10
2 1 2 3 3 3 4 3 5 3 3 3 2 2 2 1 4 3 3 3 2 2 2 5 4 2 2 3 6 7 6 7 1 3 6 2 3 4 4 9 10 11 6 5 5 8 6 5 3 5 5 5 6 4 3 4 3 6 6 6 7 10 9 9 10 11 10 10 11 12 13 14 16 16 16 16 16 16 15 13 13 12 12 12 11
3 4 2 5 3 3 1 3 2 3 2 2 2 1 1 2 1 2 3 3 4 3 2 3 5 2 2 1 3 4 5 2 4 5 7 7 6 4 5 3 5 8 6 2 2 4 3 2 5 3 3 3 3 3 3 3 6 3 6 6 9 10 12 13 14 15 13 12 12 13 15 18 19 20 19 19 18 17 15 14 13 13 13 13 13
3 2 3 3 3 4 3 3 1 1 1 1 1 0 1 1 2 2 2 2 5 4 3 2 2 3 1 1 1 1 4 5 5 5 5 6 7 6 4 5 5 5 6 7 5 5 2 2 3 4 5 4 2 2 6 4 8 8 6 8 13 12 14 16 18 18 17 15 15 16 19 21 22 22 22 20 19 17 16 15 14 13 13 13 13
2 4 4 4 4 4 3 2 4 1 1 0 1 1 1 1 2 1 2 0 3 4 3 2 2 2 1 1 4 1 1 3 2 2 2 3 2 5 4 4 4 5 5 6 6 5 5 4 4 4 4 2 4 3 4 8 10 9 8 8 11 15 20 20 21 21 20 19 18 19 21 22 24 23 22 21 20 19 16 15 13 13 12 13 14
5 7 6 5 5 5 4 3 4 3 2 2 2 2 2 1 2 2 2 3 2 2 3 2 3 3 1 1 3 2 1 0 1 2 2 4 2 4 5 5 4 5 6 7 5 6 8 6 6 8 6 3 8 8 10 11 9 9 10 10 10 20 23 21 24 25 24 22 20 20 21 23 24 24 23 22 21 19 17 15 13 13 12 13 14
6 7 7 5 6 6 5 4 4 3 3 2 1 2 3 3 2 2 3 4 4 3 2 4 3 3 3 1 2 2 2 4 4 5 5 5 3 0 3 5 6 7 7 6 5 6 6 6 8 8 6 11 9 9 13 10 14 11 12 12 12 21 20 20 23 26 26 25 22 21 22 24 25 25 24 23 21 20 18 16 15 14 13 13 14
8 6 6 5 6 6 6 5 4 5 3 3 3 4 4 4 5 5 6 3 4 4 3 1 2 3 5 4 2 3 2 2 3 3 3 5 4 3 4 4 3 5 5 6 6 6 7 7 10 7 8 11 10 12 10 10 15 14 13 13 14 15 17 19 20 23 26 27 26 25 24 24 24 24 23 22 21 20 18 17 16 15 14 14 14
9 8 7 5 6 6 5 7 4 6 6 4 4 5 4 4 3 3 4 5 4 4 5 3 3 3 5 6 5 3 3 2 3 1 2 1 6 4 3 2 4 4 5 7 5 7 7 9 7 8 9 10 8 11 12 13 10 13 13 13 12 8 15 16 16 19 23 25 27 27 24 22 22 22 22 22 21 20 19 19 18 17 15 15 15
9 9 10 6 8 7 6 7 8 6 8 6 4 5 5 6 4 2 4 5 4 4 4 4 4 5 4 6 5 4 3 4 2 2 2 2 3 4 5 5 4 3 6 7 8 7 7 7 9 9 8 10 10 12 11 10 10 11 11 12 10 11 13 16 17 15 24 24 26 25 23 20 20 21 22 22 22 22 21 21 20 19 18 17 17
10 9 10 9 9 9 7 8 9 7 7 7 6 4 6 7 6 4 4 5 6 5 5 5 5 6 6 6 4 4 3 3 5 4 3 4 4 6 6 6 6 4 7 9 9 10 9 8 9 9 10 10 10 11 11 10 11 12 13 13 12 12 15 14 13 18 20 24 23 22 21 19 19 20 21 23 24 25 24 24 24 23 21 20 19
10 11 10 11 11 11 8 8 9 8 6 6 7 6 5 5 6 6 4 4 6 7 6 7 6 7 7 6 5 4 4 3 5 5 5 4 5 7 6 7 8 9 10 10 10 9 8 7 8 8 8 9 10 9 10 10 10 12 13 12 13 14 16 18 11 17 19 22 20 20 19 19 20 21 22 23 25 27 28 27 26 25 24 22 21
11 12 12 10 12 12 10 9 8 9 8 7 7 6 6 6 5 5 5 5 4 5 6 6 7 7 7 7 6 6 5 4 4 5 6 4 5 5 7 8 9 10 10 9 8 8 9 8 8 7 9 9 10 10 10 11 12 12 12 12 13 13 15 15 13 12 16 15 15 15 17 19 21 24 26 26 28 29 30 29 28 27 25 23 21
10 9 13 13 13 13 13 11 9 9 9 8 8 7 6 6 7 6 5 6 6 6 6 5 5 6 6 7 8 7 7 7 6 6 7 6 6 6 7 9 11 11 10 9 9 9 8 8 7 8 7 8 9 9 10 11 12 12 11 11 12 13 13 12 11 10 13 18 17 21 22 24 24 25 28 29 30 31 31 30 29 27 24 22 20
10 10 nan 14 15 13 13 12 11 10 11 10 10 10 8 6 7 8 7 5 6 7 6 6 5 5 7 7 6 8 8 8 8 8 7 8 8 7 8 8 9 10 10 10 11 10 10 9 8 8 9 8 9 10 11 13 11 9 10 10 8 9 12 14 14 13 13 15 17 17 18 20 18 21 26 27 29 30 31 31 30 28 26 22 21
10 9 10 nan 16 15 14 14 13 11 11 12 12 12 12 10 7 7 9 7 6 6 8 7 7 7 6 6 7 7 10 10 9 8 7 8 10 9 8 9 9 8 9 10 10 11 10 9 8 9 8 7 8 10 9 6 5 6 10 12 10 13 16 15 14 15 15 14 14 12 17 20 17 18 21 21 22 27 29 32 29 31 28 25 23
14 13 12 11 12 17 16 16 15 14 12 13 15 15 15 12 11 8 8 9 7 6 7 8 7 8 6 6 5 5 8 12 12 11 9 6 7 10 11 10 9 9 9 8 8 8 9 8 8 8 8 8 9 9 7 5 5 7 9 11 12 14 15 14 14 14 11 11 11 12 14 17 16 18 19 19 20 27 27 28 27 29 29 28 25
16 17 15 13 10 12 16 16 16 14 13 12 18 20 17 15 13 11 8 10 9 7 6 8 8 7 8 8 8 6 8 10 12 13 12 10 7 5 5 8 12 12 10 9 8 9 8 8 8 8 8 8 8 9 9 10 10 10 12 15 15 16 15 14 10 12 13 12 12 14 14 17 16 14 18 20 21 25 27 29 33 35 34 30 27
20 18 17 16 16 13 12 15 15 14 13 12 18 21 20 18 15 12 11 9 9 10 8 6 7 8 7 7 7 6 9 11 13 13 12 11 10 8 7 6 5 6 10 12 12 11 9 8 9 9 10 10 10 11 10 10 11 11 14 15 15 14 11 10 11 11 13 15 12 13 13 15 15 15 13 14 18 25 27 33 38 38 36 33 29
36 27 20 20 20 18 16 18 16 16 16 14 17 nan 20 20 17 14 11 11 9 8 9 8 8 8 10 10 7 8 8 8 12 14 14 11 10 10 8 7 5 5 4 5 9 10 14 12 11 10 10 11 10 10 11 12 15 12 12 11 12 10 10 9 11 11 11 15 14 14 13 13 15 13 11 13 15 21 26 32 38 38 36 35 31
26 25 25 22 21 21 19 18 19 19 20 19 20 19 20 20 20 17 14 10 10 9 10 9 9 10 9 9 10 9 9 9 12 13 14 13 12 10 10 10 9 5 2 2 2 4 7 8 8 8 10 12 10 13 12 13 12 11 10 9 11 11 10 11 13 13 15 17 15 14 13 12 14 12 11 10 16 20 24 32 37 36 36 36 34
24 22 23 25 27 27 25 22 21 19 16 23 22 24 23 24 23 22 18 12 9 11 11 11 12 11 13 11 10 10 11 13 10 10 14 15 14 12 11 9 8 7 6 6 6 7 6 7 6 4 5 7 7 9 10 11 10 11 11 10 11 11 11 13 13 14 14 17 17 17 16 15 16 13 12 12 17 20 23 29 35 36 36 37 35
30 28 24 24 26 24 22 23 24 20 19 28 30 22 18 25 30 27 23 18 14 12 12 15 15 15 14 13 13 12 12 12 12 8 10 16 17 14 12 11 10 8 7 7 6 5 4 4 5 4 5 5 5 6 6 7 9 11 10 10 13 12 10 11 12 15 16 20 21 19 16 16 17 16 14 16 22 21 24 25 30 34 35 35 35
28 26 24 22 22 21 19 21 21 21 21 21 22 26 23 17 26 28 27 24 20 16 14 14 15 16 16 16 15 14 12 13 13 12 11 14 16 15 14 13 12 10 9 10 10 9 6 6 5 4 5 6 6 7 8 8 10 11 12 13 15 15 14 13 14 16 17 20 21 23 19 17 19 19 17 18 22 24 25 28 29 32 33 34 34
27 25 24 21 20 18 18 18 19 19 21 23 22 26 27 27 23 25 27 26 24 21 18 18 18 17 16 11 14 16 14 13 11 14 14 17 16 15 14 13 13 10 10 12 14 13 11 9 8 8 8 7 6 6 7 8 10 15 16 13 14 16 13 14 13 15 16 19 21 23 21 21 23 24 21 21 21 25 27 28 30 30 32 31 32
31 27 25 23 20 19 17 16 17 20 20 23 26 26 28 29 28 26 27 28 25 22 21 20 21 21 21 18 13 15 16 15 12 14 16 20 18 17 17 16 13 9 11 16 16 14 17 16 9 7 5 4 6 9 10 12 14 17 18 16 17 17 15 14 15 16 15 18 22 27 21 21 26 25 26 25 23 25 27 29 30 30 30 30 28
Wind_Direction
119 119 122 128 107 100 99 97 94 98 93 98 99 98 103 107 107 105 103 104 124 127 118 111 118 124 129 119 109 104 112 110 108 108 112 110 109 100 85 84 86 84 82 83 86 89 89 87 83 79 81 82 84 82 76 68 65 66 67 68 67 64 62 58 56 55 54 52 52 53 53 55 55 57 60 63 63 62 61 60 59 58 57 55 55
116 124 132 110 102 103 104 98 98 99 96 94 96 104 110 109 100 105 117 118 126 121 125 124 111 111 106 106 105 103 102 103 101 102 106 107 112 106 83 87 86 84 84 87 86 87 87 85 84 82 80 82 79 72 67 67 66 71 70 70 69 62 60 59 57 57 58 57 55 57 59 62 64 64 65 66 67 66 65 64 63 62 61 60 60
115 129 131 121 113 102 100 102 102 100 98 98 100 106 112 111 104 108 107 118 131 120 117 107 115 105 99 97 103 104 100 93 98 98 96 113 114 108 96 82 84 86 89 91 92 90 86 84 80 81 82 82 78 71 68 68 70 68 69 67 63 62 59 59 61 63 62 61 62 65 67 69 69 68 68 67 67 67 67 67 66 64 63 62 59
88 82 77 90 102 109 114 111 112 107 113 114 114 113 106 101 105 108 110 116 111 103 106 114 104 104 97 96 102 103 108 106 91 93 108 109 107 105 105 97 85 86 88 88 90 89 87 83 84 86 85 79 73 72 69 73 73 71 68 65 61 63 63 64 65 66 66 67 70 71 73 72 71 69 68 68 68 66 66 65 64 64 62 60 58
68 69 57 63 69 98 121 122 111 109 114 112 117 113 99 97 94 99 102 89 82 83 80 83 98 114 110 101 101 104 107 111 117 111 108 102 103 104 100 100 98 89 87 88 85 84 83 84 85 83 78 74 75 73 75 73 70 67 67 66 67 68 70 71 71 71 72 73 74 75 73 73 71 70 70 68 67 66 64 64 63 61 61 59 57
83 80 75 67 48 63 73 84 94 99 102 105 103 103 98 89 88 85 83 81 81 82 92 89 84 79 91 95 103 111 115 112 114 124 111 107 103 100 100 100 102 102 98 87 84 83 83 84 84 79 75 75 75 74 72 71 70 68 67 69 71 71 73 74 73 74 76 75 75 74 73 71 71 70 70 69 66 65 64 63 61 61 59 58 57
94 93 81 71 72 69 69 79 80 83 94 92 83 79 77 78 80 76 63 72 76 79 77 83 86 85 86 91 88 90 94 105 115 114 117 116 104 99 99 100 101 99 99 99 88 81 81 80 78 75 75 75 74 73 72 70 69 68 69 73 75 76 76 76 76 77 78 77 75 74 73 72 71 70 70 69 67 65 64 63 62 61 60 59 58
103 96 95 82 80 88 93 91 92 88 82 85 85 89 87 84 80 76 76 82 80 83 86 95 88 80 84 86 95 100 105 112 108 110 111 110 113 113 108 102 97 96 92 95 97 92 75 74 72 72 73 71 72 73 72 69 69 69 74 76 78 77 78 78 79 79 78 78 76 75 74 73 71 70 69 68 67 65 64 63 62 61 60 59 59
111 105 92 91 92 89 91 92 90 89 90 90 87 86 86 84 81 81 76 76 84 78 95 83 94 89 87 88 96 98 105 96 103 108 108 112 110 106 110 108 105 97 96 92 96 94 77 71 70 70 70 68 69 71 70 70 70 74 77 79 78 79 79 80 80 80 79 78 78 76 75 74 73 71 70 68 67 65 63 63 62 60 59 58 57
118 114 109 93 93 93 92 94 97 89 90 95 91 92 97 85 84 103 106 101 97 94 84 104 94 96 101 102 100 93 94 104 111 108 105 106 102 104 102 102 102 100 101 100 87 88 88 77 72 69 66 66 67 66 67 69 74 78 78 79 80 81 81 81 81 80 80 79 78 77 76 75 74 72 70 68 67 66 64 62 60 59 58 56 57
126 120 110 101 100 103 102 97 101 100 94 89 91 96 98 102 90 84 88 94 96 92 99 98 96 97 99 94 95 104 103 100 99 101 101 98 101 103 96 98 100 96 101 103 93 86 84 86 82 80 74 65 65 64 66 70 76 78 79 80 81 81 82 83 83 83 82 81 80 78 77 76 74 73 71 69 68 65 64 63 61 59 58 57 55
127 122 118 108 105 106 107 99 99 98 98 94 92 89 88 91 91 87 94 98 93 107 105 100 103 108 104 104 105 98 102 102 100 93 97 101 102 104 106 101 108 102 91 98 83 70 75 78 73 72 74 64 60 63 65 72 77 78 79 81 82 83 85 86 86 85 85 84 83 80 78 76 75 74 72 69 67 66 65 64 62 60 59 58 54
122 122 119 113 110 112 112 111 101 103 107 111 109 90 93 94 97 102 92 94 106 94 89 97 104 111 111 106 104 105 102 105 101 100 100 107 102 102 112 110 106 112 118 117 94 80 78 78 68 65 73 66 63 67 72 75 78 80 81 82 83 85 87 88 89 88 87 86 85 81 78 75 72 71 70 68 68 67 66 64 61 60 61 61 58
117 121 119 117 115 117 116 110 111 110 120 110 98 101 91 89 84 87 96 95 95 104 109 109 109 108 109 111 106 103 106 91 92 99 101 99 102 107 99 105 101 100 103 96 98 77 75 82 92 97 70 58 69 76 85 87 85 82 82 83 85 87 88 90 91 91 89 88 86 81 77 74 72 71 69 68 67 66 65 63 61 59 58 59 58
106 115 118 113 116 114 110 112 111 107 98 95 101 102 91 88 83 97 86 82 96 94 101 101 108 113 114 115 114 112 114 115 106 100 nan nan 97 89 85 77 78 81 83 88 97 112 114 106 108 95 104 101 78 84 92 89 83 77 79 83 87 88 91 92 93 93 91 90 86 83 79 75 74 73 70 67 66 65 64 62 61 59 57 58 53
84 94 110 119 117 111 106 113 113 108 98 99 99 92 94 87 84 86 99 95 81 90 96 114 117 124 123 116 113 116 119 119 111 118 115 91 nan 97 108 126 128 120 95 100 105 97 84 85 89 88 90 101 120 107 99 83 75 74 76 80 82 88 91 93 95 95 94 92 87 84 80 75 72 68 70 67 64 65 62 61 59 57 54 54 52
77 87 102 115 120 112 116 106 107 103 100 96 95 91 85 87 91 91 88 97 92 95 96 101 116 111 111 121 129 130 127 120 126 124 128 118 nan 144 154 120 111 114 125 138 119 96 88 84 84 96 100 104 106 109 108 100 101 90 87 89 90 89 90 93 96 97 96 95 94 86 78 72 68 67 67 66 66 63 59 55 53 52 51 48 46
78 81 90 101 112 113 113 110 101 101 94 93 88 94 88 88 90 94 85 92 113 103 116 114 109 114 114 118 103 116 114 125 131 127 127 131 126 98 102 156 121 113 119 110 91 111 83 70 90 91 95 100 100 105 112 113 89 102 107 94 85 88 96 97 98 102 103 102 97 88 80 69 64 66 65 64 60 54 50 44 43 41 41 36 34
58 77 78 91 98 108 105 103 98 97 101 103 106 93 91 92 86 107 115 115 107 116 95 103 125 116 104 97 137 140 145 137 132 136 140 135 133 85 106 100 88 102 102 85 80 90 98 83 65 95 105 117 111 119 114 122 127 158 85 66 81 93 101 106 106 108 107 103 98 90 82 71 64 62 57 48 38 32 34 35 33 32 31 30 27
69 82 77 75 93 93 98 100 101 95 102 104 101 97 99 107 99 95 124 111 121 121 135 124 100 117 146 149 159 153 136 140 155 143 124 121 135 137 91 73 90 73 66 87 120 124 130 118 102 101 122 134 140 124 135 149 146 114 101 64 60 93 103 104 105 103 99 100 103 92 79 70 63 49 41 30 22 19 20 23 25 25 27 27 29
80 72 79 78 83 88 89 117 106 105 98 96 95 100 110 104 114 116 108 126 110 134 132 123 129 163 144 164 147 125 125 153 142 140 131 139 130 138 142 146 155 152 146 133 100 113 102 125 157 147 134 130 132 134 152 141 144 110 73 45 39 65 97 102 96 96 100 105 95 79 75 67 45 32 23 19 14 12 11 11 16 23 25 27 30
81 77 84 77 78 81 82 73 85 109 100 95 93 112 110 118 120 112 107 98 127 132 112 137 164 168 196 146 154 154 159 145 132 116 130 139 122 122 136 152 163 142 145 161 157 65 100 112 116 142 155 157 147 155 157 149 122 111 98 46 27 55 75 101 93 102 253 63 74 78 71 44 27 13 9 7 8 8 6 6 9 16 21 25 28
66 83 76 71 71 76 70 71 79 68 93 103 107 79 78 94 99 117 126 120 129 124 138 192 175 153 184 146 127 130 131 144 141 155 162 135 135 142 132 139 156 158 152 159 147 161 133 148 159 179 160 172 168 160 160 135 167 154 27 36 24 38 52 53 66 272 299 328 47 77 26 18 10 4 359 358 360 360 3 3 8 12 14 15 22
87 69 67 66 76 79 83 77 96 78 82 115 104 93 67 64 83 106 112 122 121 156 146 142 116 76 131 139 98 117 169 118 123 116 172 144 149 137 144 154 162 158 154 147 133 129 147 144 149 185 184 178 176 159 148 178 179 340 62 18 27 32 16 32 327 292 306 313 343 1 354 350 355 358 353 352 351 353 356 0 6 9 5 5 13
64 48 65 58 92 83 87 86 61 77 73 63 69 84 123 80 27 39 74 94 124 126 137 133 122 128 121 168 83 117 277 94 150 136 127 128 120 131 133 152 155 146 139 142 131 142 104 134 193 189 186 171 189 179 157 199 179 47 304 349 17 353 341 353 317 305 309 322 331 331 332 338 343 350 351 349 347 347 350 355 2 3 358 358 4
3 70 51 42 66 83 93 88 81 73 76 80 67 67 74 121 70 36 39 31 47 91 109 110 117 144 194 159 159 177 147 104 90 119 103 82 118 112 144 154 161 154 152 148 143 138 170 173 207 199 198 185 203 194 185 222 232 333 328 347 354 335 342 347 329 314 320 325 329 327 331 334 339 342 347 347 345 343 345 351 354 356 354 353 356
291 355 113 321 46 63 61 85 85 78 62 66 61 45 5 23 106 73 82 341 2 34 71 101 97 117 123 206 183 161 154 167 156 56 103 65 88 147 162 162 162 148 141 156 140 143 145 168 258 230 229 191 197 234 195 195 268 309 321 322 322 340 337 354 329 318 321 326 328 333 333 333 334 340 339 341 340 340 344 344 349 352 352 352 352
261 306 25 323 346 353 49 61 82 70 77 76 64 18 24 360 25 71 81 358 347 8 37 66 105 93 90 221 228 156 163 136 158 178 175 198 195 189 174 163 149 156 164 164 126 127 170 169 214 258 261 247 215 251 340 354 286 343 353 326 313 324 337 348 329 322 324 329 333 334 336 333 336 336 339 339 340 341 342 343 348 354 354 353 352
265 289 312 273 299 304 333 3 23 144 109 94 64 39 339 12 5 19 32 37 327 344 1 56 84 85 305 75 235 180 138 215 198 171 228 205 181 162 173 170 182 183 171 185 184 181 123 184 241 203 246 261 289 302 311 312 307 323 269 290 315 318 338 345 328 323 325 331 333 334 333 333 334 338 337 340 339 341 344 347 353 357 360 359 1
257 294 280 295 275 297 289 287 306 345 124 67 143 17 301 317 330 354 332 102 301 317 343 10 25 103 79 347 316 38 173 207 208 118 241 245 216 148 178 174 216 191 189 207 187 188 190 177 238 254 219 278 318 298 281 276 310 297 294 290 306 323 330 338 328 324 327 328 332 333 335 335 336 335 335 336 342 345 351 357 1 7 10 12 11
232 235 269 287 278 284 271 278 281 289 275 232 221 195 245 241 302 302 292 273 258 292 320 358 26 1 50 139 276 310 253 56 304 327 295 280 178 168 159 206 210 214 214 206 211 198 209 194 211 250 284 341 245 239 267 292 301 303 288 297 298 322 328 329 329 325 324 327 330 333 336 338 337 335 337 342 347 354 0 6 11 17 16 15 14
235 236 261 270 286 303 308 311 310 309 299 290 295 231 227 211 223 272 278 280 287 289 328 337 19 326 317 290 209 240 211 187 183 192 271 280 271 252 161 219 210 211 228 234 224 203 208 196 211 211 200 245 247 262 252 258 299 313 294 300 305 318 316 314 326 325 325 327 332 338 341 342 341 341 345 350 355 359 4 8 13 17 13 12 9
249 256 255 262 280 291 300 292 308 289 279 279 266 241 236 228 194 214 249 259 271 270 272 279 347 294 304 303 270 256 225 219 196 178 215 276 270 225 193 233 262 241 244 233 222 216 214 218 226 223 226 242 249 256 263 271 280 293 301 296 295 310 313 313 317 325 327 327 334 339 343 347 348 349 350 353 357 1 3 4 7 10 7 5 1
252 275 269 275 269 280 292 283 267 276 288 272 297 269 269 254 236 216 238 229 256 257 263 262 241 229 263 284 282 273 277 239 219 200 215 226 294 281 281 227 243 271 268 268 251 240 228 233 233 237 235 246 250 269 269 269 270 276 281 286 292 305 306 313 312 318 329 329 335 339 348 354 356 353 352 352 354 357 356 357 359 2 360 356 353
252 254 275 277 262 266 264 258 274 254 275 294 281 283 292 289 277 236 259 273 258 260 264 252 261 260 246 268 281 276 291 293 283 210 212 205 232 286 308 298 289 263 276 282 265 255 246 241 243 240 251 258 261 256 262 275 279 286 289 292 300 289 284 309 316 316 329 337 336 340 352 360 359 355 350 349 348 349 349 348 350 347 348 347 346
261 247 257 274 264 263 262 256 264 262 260 284 292 287 286 297 299 288 230 263 283 276 264 263 266 263 267 262 276 291 282 277 294 284 232 208 214 216 232 273 294 298 263 280 266 260 252 242 250 251 248 241 254 256 254 263 274 280 287 286 290 305 301 291 298 316 327 342 334 340 350 357 359 355 349 346 343 341 342 341 339 341 342 342 339
261 263 245 255 264 265 272 260 263 269 264 269 281 301 297 287 300 302 291 252 263 273 275 267 266 263 266 267 273 273 270 257 271 284 265 249 221 222 233 239 253 257 246 261 272 279 271 262 252 254 253 260 262 265 268 261 269 275 276 292 294 292 302 303 313 316 327 339 333 341 347 351 355 354 348 343 339 336 337 335 335 336 338 339 337
256 268 268 254 256 267 267 264 260 267 268 270 274 284 304 306 297 309 295 287 277 260 262 264 264 266 268 276 271 272 273 267 258 267 272 264 250 233 225 233 243 249 253 252 261 263 271 273 268 252 258 256 257 264 275 282 276 276 280 278 278 285 295 304 314 316 319 320 320 328 339 344 352 352 344 342 341 338 337 337 337 338 339 339 341
273 268 278 271 257 258 265 265 266 267 278 288 280 284 285 293 303 307 321 309 292 278 273 268 266 266 265 263 267 270 269 270 264 257 263 269 255 245 242 233 240 253 259 264 264 268 270 268 267 271 266 268 274 268 278 289 293 300 302 292 292 298 304 312 313 316 315 324 341 344 337 335 341 334 337 343 344 344 342 342 343 342 343 347 344
278 275 nan 281 274 265 264 266 261 265 273 284 283 284 289 289 291 300 309 305 309 303 294 284 283 276 274 276 272 273 276 267 268 262 260 263 266 249 250 244 235 237 243 250 262 267 270 271 274 273 278 278 280 287 277 276 279 288 298 299 308 311 317 311 314 318 319 323 333 340 344 340 341 339 337 344 351 347 343 344 347 345 347 347 345
274 273 266 nan 277 280 271 264 267 270 279 286 285 285 289 295 286 296 304 311 311 296 299 300 288 276 262 259 273 275 273 293 299 285 270 267 264 266 257 252 254 251 241 237 239 253 264 269 266 270 273 272 269 262 261 274 311 319 300 304 310 305 301 300 307 323 327 333 339 348 336 342 345 340 333 340 347 344 343 347 342 346 345 348 347
260 263 259 254 260 280 279 275 274 278 276 281 291 308 301 289 294 302 294 298 304 296 289 285 288 287 286 272 254 289 306 305 309 307 304 285 261 250 253 265 266 260 256 251 248 242 244 253 260 259 252 256 258 270 288 297 288 274 275 285 294 296 297 307 311 315 333 340 334 332 326 329 343 333 340 348 346 338 342 344 346 341 344 346 343
247 255 264 262 254 252 276 279 279 280 280 283 299 308 308 309 297 291 286 283 294 297 291 276 274 270 268 278 280 264 277 301 303 314 310 310 307 283 249 242 245 247 251 259 252 246 243 247 251 253 253 250 256 256 259 268 271 276 280 283 293 295 300 299 308 310 323 341 339 328 330 326 334 344 342 351 349 344 346 353 353 348 346 345 343
237 240 248 254 250 243 244 266 279 276 272 282 293 305 306 308 301 284 284 283 280 289 294 287 278 280 272 257 258 273 282 288 292 298 305 315 315 310 300 276 258 254 252 247 242 245 250 247 249 256 259 265 266 274 276 278 281 274 269 268 276 280 284 295 303 314 313 318 330 326 333 326 332 345 351 356 347 341 352 349 351 348 346 344 343
202 206 225 240 245 246 238 232 244 267 270 281 286 nan 303 303 304 290 273 272 279 274 281 290 285 274 273 278 263 242 232 274 296 296 299 302 314 326 320 315 294 278 261 261 262 252 238 240 247 256 266 264 261 265 266 268 267 267 267 269 272 279 292 306 312 311 316 318 319 319 323 329 327 332 350 360 358 334 340 340 344 344 345 347 345
224 219 209 219 234 245 250 249 241 237 247 276 290 292 297 299 297 291 270 264 257 260 263 269 276 280 281 271 269 266 259 239 246 263 277 291 288 283 275 268 263 266 282 292 287 278 265 253 251 252 259 262 269 268 270 267 267 271 273 278 277 282 294 308 306 312 312 310 320 318 319 329 330 337 340 349 328 325 334 339 339 341 345 349 348
251 241 238 236 233 227 227 236 247 246 251 263 288 298 300 299 298 289 273 273 256 246 249 256 257 259 263 273 272 271 265 265 261 253 262 272 275 273 275 277 275 270 269 272 276 278 282 282 284 288 276 270 265 269 269 271 273 276 279 285 289 292 297 293 295 303 309 313 320 323 330 329 321 331 336 338 323 326 325 332 339 342 347 348 345
242 242 243 246 242 235 234 233 237 242 243 245 263 262 281 300 303 285 283 279 267 252 244 241 246 252 257 259 257 257 262 265 274 289 270 263 269 276 275 273 269 270 273 285 306 302 298 291 297 314 309 325 335 313 300 289 282 284 287 290 288 288 294 301 311 310 315 313 322 325 321 321 321 327 323 320 313 321 323 331 342 344 347 346 342
252 257 259 259 261 262 256 252 246 245 247 243 246 267 277 278 285 285 291 286 282 277 267 260 251 248 248 254 259 257 256 258 269 283 282 274 257 263 266 268 266 263 263 268 300 333 351 14 29 21 22 17 8 2 359 351 312 290 281 287 296 296 300 306 306 309 314 309 307 314 317 319 315 318 322 318 317 323 330 335 335 344 344 341 340
240 245 249 253 260 264 266 264 265 262 258 261 268 269 275 279 280 280 284 285 285 286 283 278 273 266 262 254 250 256 258 259 266 272 274 270 259 259 255 250 247 247 251 255 252 274 327 353 8 22 16 3 355 355 332 319 313 287 293 301 296 287 292 298 299 301 301 305 307 310 307 313 309 309 312 308 312 316 324 325 330 331 337 338 342
229 232 237 236 238 244 247 250 260 263 255 263 276 271 276 283 286 278 276 278 280 282 281 277 275 272 269 268 266 260 257 255 267 269 271 269 259 258 257 250 241 235 248 248 250 246 254 265 263 261 246 270 286 293 304 327 320 302 294 297 290 288 290 292 292 283 283 294 297 296 305 302 305 306 305 302 309 306 303 316 321 326 329 328 332